{"data":{"norad_id":44207,"intl_designator":"2019-024A","name":"TIANHUI 2-01A","alt_names":[],"object_type":"PAYLOAD","status":"ACTIVE","operator":null,"country":"PRC","launch_date":"2019-04-29","launch_site_code":"TAISC","launch_vehicle":null,"mission":null,"orbit_class":"UNKNOWN","rcs_meters":null,"size_class":null,"mass_kg":null,"dimensions":null,"purposes":[],"wikipedia_slug":null,"has_3d_model":false,"image_url":null,"decayed_at":null,"tle_current":{"epoch":"2026-09-19T12:00:17.446752Z","epoch_age_seconds":139577,"freshness":"FRESH","line1":"1 44207U 19024A   26262.50020193  .00001118  00000+0  60392-4 0  9995","line2":"2 44207  97.4852 265.2033 0001549 103.7857 256.3548 15.16759886116439","mean_motion":15.16759886,"eccentricity":0.0001549,"inclination_deg":97.4852,"raan_deg":265.2033,"arg_perigee_deg":103.7857,"mean_anomaly_deg":256.3548,"bstar":6.0392e-5,"rev_number":11643,"period_min":94.939219667628,"perigee_km":514.57301726827,"apogee_km":516.70870965036,"semimajor_km":6893.7778634593,"source":"CELESTRAK","updated_at":"2026-09-20T09:00:14.454944Z"}}}